EW3263 Weather Reports


Display with metric or nautical units.
time (UTC)temp
F
wind
direction
speed
MPH
gust
MPH
rain 1hr
in
rain 24hr
in
rain mn
in
humidity
%
barometer
mb
20260904190034 79 0.0 0.0 0.00 0.00 0.00 40 1019.4
20260904184514 79 0.0 0.0 0.00 0.00 0.00 41 1019.4
20260904183010 79 0.0 0.0 0.00 0.00 0.00 42 1019.5
20260904181505 78 0.0 0.0 0.00 0.00 0.00 41 1019.5
20260904180105 76 0.0 0.0 0.00 0.00 0.00 44 1019.6
20260904174556 75 0.0 0.0 0.00 0.00 0.00 45 1019.6
20260904173053 73 0.0 0.0 0.00 0.00 0.00 47 1019.7
20260904171547 73 0.0 0.0 0.00 0.00 0.00 49 1019.6
20260904170043 71 0.0 0.0 0.00 0.00 0.00 53 1019.6
20260904164538 70 0.0 0.0 0.00 0.00 0.00 56 1019.4
20260904163034 69 0.0 0.0 0.00 0.00 0.00 55 1019.4
20260904161530 68 0.0 0.0 0.00 0.00 0.00 60 1019.1
20260904160026 66 0.0 0.0 0.00 0.00 0.00 59 1019.0
20260904154521 65 0.0 0.0 0.00 0.00 0.00 61 1019.0
20260904153017 64 0.0 0.0 0.00 0.00 0.00 64 1019.0
20260904151512 63 0.0 0.0 0.00 0.00 0.00 65 1018.9
20260904150021 61 0.0 0.0 0.00 0.00 0.00 70 1018.9
20260904144505 59 0.0 0.0 0.00 0.00 0.00 71 1018.8
20260904143100 56 0.0 0.0 0.00 0.00 0.00 79 1018.8
20260904141557 54 0.0 0.0 0.00 0.00 0.00 81 1018.7
20260904140103 55 0.0 0.0 0.00 0.00 0.00 79 1018.6
20260904134549 56 0.0 0.0 0.00 0.00 0.00 88 1018.6
20260904133042 57 0.0 0.0 0.00 0.00 0.00 88 1018.6
20260904131537 57 0.0 0.0 0.00 0.00 0.00 89 1018.4
20260904130046 57 0.0 0.0 0.00 0.00 0.00 89 1018.2
20260904124529 57 0.0 0.0 0.00 0.00 0.00 89 1018.2
20260904123026 57 0.0 0.0 0.00 0.00 0.00 85 1018.0
20260904121520 58 0.0 0.0 0.00 0.00 0.00 88 1017.9
20260904120021 58 0.0 0.0 0.00 0.00 0.00 88 1018.1
20260904114512 58 0.0 0.0 0.00 0.00 0.00 88 1018.3
20260904113008 58 0.0 0.0 0.00 0.00 0.00 88 1018.3
20260904111502 58 0.0 0.0 0.00 0.00 0.00 88 1018.3
20260904110059 58 0.0 0.0 0.00 0.00 0.00 88 1018.4
20260904104555 58 0.0 0.0 0.00 0.00 0.00 88 1018.3
20260904103051 58 0.0 0.0 0.00 0.00 0.00 86 1018.2
20260904101546 56 0.0 0.0 0.00 0.00 0.00 83 1018.2
20260904100042 56 0.0 0.0 0.00 0.00 0.00 81 1018.1
20260904094537 56 0.0 0.0 0.00 0.00 0.00 80 1018.0
20260904093032 56 0.0 0.0 0.00 0.00 0.00 81 1017.9
20260904091528 56 0.0 0.0 0.00 0.00 0.00 80 1017.9
20260904090031 57 0.0 0.0 0.00 0.00 0.00 82 1017.9
20260904084520 57 0.0 0.0 0.00 0.00 0.00 83 1017.9
20260904083015 57 0.0 0.0 0.00 0.00 0.00 83 1018.2
20260904081511 58 0.0 0.0 0.00 0.00 0.00 83 1018.2
20260904080011 58 0.0 0.0 0.00 0.00 0.00 83 1018.3
20260904074501 58 0.0 0.0 0.00 0.00 0.00 84 1018.4
20260904073059 59 0.0 0.0 0.00 0.00 0.00 84 1018.6
20260904071553 59 0.0 0.0 0.00 0.00 0.00 84 1018.5
20260904070049 59 0.0 0.0 0.00 0.00 0.00 85 1018.5
20260904064551 60 0.0 0.0 0.00 0.00 0.00 85 1018.6
20260904063043 60 0.0 0.0 0.00 0.00 0.00 83 1018.5
20260904061544 60 0.0 0.0 0.00 0.00 0.00 82 1018.2
20260904060032 61 0.0 0.0 0.00 0.00 0.00 82 1018.3
20260904054528 61 0.0 0.0 0.00 0.00 0.00 83 1018.3
20260904053023 62 0.0 0.0 0.00 0.00 0.00 81 1018.3
20260904051518 62 0.0 0.0 0.00 0.00 0.00 80 1018.4
20260904050018 62 0.0 0.0 0.00 0.00 0.00 80 1018.5
20260904044511 62 0.0 0.0 0.00 0.00 0.00 79 1018.4
20260904043006 63 0.0 0.0 0.00 0.00 0.00 78 1018.3
20260904041501 64 0.0 0.0 0.00 0.00 0.00 77 1018.3
20260904040057 64 0.0 0.0 0.00 0.00 0.00 77 1018.3
20260904034552 65 0.0 0.0 0.00 0.00 0.00 75 1018.2
20260904033048 65 0.0 0.0 0.00 0.00 0.00 74 1018.1
20260904031544 66 0.0 0.0 0.00 0.00 0.00 72 1018.1
20260904030039 67 0.0 0.0 0.00 0.00 0.00 71 1018.0
20260904024535 68 0.0 0.0 0.00 0.00 0.00 69 1017.9
20260904023031 68 0.0 0.0 0.00 0.00 0.00 68 1017.8
20260904021527 69 0.0 0.0 0.00 0.00 0.00 65 1017.7
20260904020021 70 0.0 0.0 0.00 0.00 0.00 65 1017.7
20260904014518 71 0.0 0.0 0.00 0.00 0.00 61 1017.8
20260904013013 72 0.0 0.0 0.00 0.00 0.00 60 1017.8
20260904011509 72 0.0 0.0 0.00 0.00 0.00 59 1017.9
20260904010005 72 0.0 0.0 0.00 0.00 0.00 57 1017.9
20260904004600 73 0.0 0.0 0.00 0.00 0.00 56 1017.9
20260904003056 75 0.0 0.0 0.00 0.00 0.00 54 1017.8
20260904001556 75 0.0 0.0 0.00 0.00 0.00 54 1017.8
20260904000049 75 0.0 0.0 0.00 0.00 0.00 54 1017.7
20260903234543 76 0.0 0.0 0.00 0.00 0.00 52 1017.7
20260903233046 77 0.0 0.0 0.00 0.00 0.00 49 1017.8
20260903231534 78 0.0 0.0 0.00 0.00 0.00 47 1017.9
20260903230034 78 0.0 0.0 0.00 0.00 0.00 45 1018.0
20260903224528 79 0.0 0.0 0.00 0.00 0.00 45 1018.1
20260903223021 79 0.0 0.0 0.00 0.00 0.00 46 1018.2
20260903221517 79 0.0 0.0 0.00 0.00 0.00 47 1018.3
20260903220012 80 0.0 0.0 0.00 0.00 0.00 47 1018.4
20260903214508 80 0.0 0.0 0.00 0.00 0.00 46 1018.4
20260903213004 81 0.0 0.0 0.00 0.00 0.00 45 1018.5
20260903211604 82 0.0 0.0 0.00 0.00 0.00 44 1018.6
20260903210107 81 0.0 0.0 0.00 0.00 0.00 44 1018.5
20260903204551 82 0.0 0.0 0.00 0.00 0.00 44 1018.5
20260903203047 83 0.0 0.0 0.00 0.00 0.00 36 1018.5
20260903201542 83 0.0 0.0 0.00 0.00 0.00 31 1018.7
20260903200038 83 0.0 0.0 0.00 0.00 0.00 30 1018.8
20260903194534 82 0.0 0.0 0.00 0.00 0.00 31 1019.0
20260903193029 82 0.0 0.0 0.00 0.00 0.00 31 1019.1
20260903191529 82 0.0 0.0 0.00 0.00 0.00 31 1019.3